FENGYUN 1C DEB

Satellite information

Favourite Embed

Satellite Type and Status

DEBRISIN ORBIT

Key statistics

Satellite FENGYUN 1C DEB at a glance.

Uptime

9659

Days in orbit

Revolutions

≈ 14.1

Per day

Orbit

SSO

Sun Synchronous Orbit

Inclination

98.7

Latest

Satellite identification and parameters

Extended collection of information and parameters for FENGYUN 1C DEB.

Object identification

Identified? True

Debris? True

Object name: FENGYUN 1C DEB

International designator: 1999-025DQP

Object number (NORAD): 35231

Object ID (CCSDS): 35231

Country: PEOPLES REPUBLIC OF CHINA (PRC)

Current information (Y/N): Y

RCS size: SMALL

Orbital parameters

Period: 101.801 minutes

Inclination: 98.7298 deg

SMA: 7222.085 km

Apoapsis: 869.926 km

Periapsis: 817.975 km

RAAN: 335.307 deg

Eccentricy: 0.00359662

Argument of periapsis: 243.584 deg

Mean anomaly: 116.1641 deg

Mean motion: 14.14519142 rev/day

Mean motion (dot): 0.00000016 rev/day2

B* drag term: 0.000030782262 1/REarth

Two-line elements (TLE)

Creation date: Oct. 18, 2025, 2:17 a.m.

Reference frame: TEME

Reference center: EARTH

Epoch: Oct. 17, 2025, 8:34 p.m. UTC

TLE line 0: 0 FENGYUN 1C DEB

TLE line 1: 1 35231U 99025DQP 25290.85745892 .00000016 00000-0 30782-4 0 9996

TLE line 2: 2 35231 98.7298 335.3070 0035966 243.5840 116.1641 14.14519142907126

Live tracking on map

Real-time ground track for satellite FENGYUN 1C DEB.

In-orbit conjunctions

A list of the most updated potential collisions computed for object FENGYUN 1C DEB.

Target Orbit TCA Probability of collision Miss distance Type
FENGYUN 1C DEB SSO 2024-11-07 20:26:36 0.0006256443 327.0 (m) DEBRIS
CZ-6A DEB SSO 2024-06-09 04:33:12 0.0002315177 36.0 (m) DEBRIS

Associated space launch

Chinese polar orbiting meteorological satellite

FENGYUN 1C DEB was lifted into orbit during the mission ‘Long March 4B | Feng Yun 1C’, on board a Long March 4B space rocket.

The launch took place on May 10, 1999, 1:33 a.m. from Launch Complex 7.

For more information about the launch, click the button.

Launch to space Long March 4B | Feng Yun 1C
Long March 4B | Feng Yun 1C

Agency: N/A

Status: Launch Successful

Launch date: May 10, 1999, 1:33 a.m. UTC

Rocket: Long March 4B

Launch pad: Launch Complex 7

Location: Taiyuan Satellite Launch Center, People's Republic of China

...

Latest news about this satellite

There are no fresh news available about this satellite. Check back as we update our databases every day.


Newsletter sign-up

Weekly statistics, charts and insights to help you stay on top of the space industry.